[[{"header":{"parameterUnit":"m.s-1","parameterCategory":1,"la1":30.2991,"la2":30.254,"lo1":-89.0895,"lo2":-89.0444,"dy":0.0017,"dx":0.0017,"nx":28,"ny":28,"refTime":"2024-03-17T09:00:00:Z","depth":0,"parameterNumber":2,"parameterNumberName":"U-component_of_WINDS"},"data":[0,0,0,0,0,0,0,0,0,0,0,0,0,0,0,0,0,0,0,0,0,0,0,0,0,0,0,0,0,0,0,0,0,0,0,0,0,0,0,0,0,0,0,0,0,0,0,0,0,0,0,0,0,0,0,0,0,0,-3.0141,-3.0143,0,-3.0246,-3.0247,-3.0248,-3.016,-3.0156,-3.0153,-3.0149,-3.0256,-3.0262,-3.0268,0,0,0,0,0,0,0,0,0,0,0,0,0,-2.9862,-2.9868,-3.0141,-3.0143,-3.0144,-3.0246,-3.0247,-3.0249,-3.0161,-3.0156,-3.0152,-3.0147,-3.0253,-3.0261,-3.0268,0,0,0,0,0,0,0,0,0,0,0,0,0,-2.9977,-2.987,-3.0141,-3.0112,-3.0111,-3.0246,-3.0247,-3.0249,-3.0161,-3.0156,-3.015,-3.0145,-3.0251,-3.026,-3.0269,-3.0438,0,0,-3.0298,-3.0302,0,0,0,0,0,0,0,0,-2.9971,-2.9987,-3.0115,-3.0115,-3.0113,-3.0184,-3.0188,-3.0312,-3.0163,-3.0142,-3.0149,-3.0143,-3.0236,-3.0246,-3.0278,-3.0443,-3.0447,-3.0299,-3.0305,-3.0309,-3.0311,0,0,0,0,0,0,0,-2.9963,-2.9982,-3.0183,-3.0117,-3.0116,-3.0093,-3.0103,-3.0211,-3.0219,-3.0144,-3.0137,-3.0151,-3.0235,-3.0269,-3.028,-3.0449,-3.0299,-3.0307,-3.0313,-3.0317,-3.0754,-3.076,0,0,0,0,0,0,-2.9958,-2.9976,-3.0179,-3.0186,-3.0027,-3.0103,-3.0114,-3.0167,-3.0217,-3.022,-3.0156,-3.0147,-3.0256,-3.0269,-3.0283,-3.0483,-3.0309,-3.0317,-3.0323,-3.0748,-3.0755,-3.0762,0,0,0,0,0,0,-2.9952,-2.9977,-3.0175,-3.0079,-3.0103,-3.0113,-3.0173,-3.0172,-3.0207,-3.0227,-3.0227,-3.019,-3.0252,-3.027,-3.04,-3.0485,-3.0322,-3.033,-3.0741,-3.075,-3.0758,-3.0884,0,0,0,0,0,0,-2.9945,-2.9975,-3.0041,-3.0082,-3.0108,-3.0291,-3.0179,-3.0178,-3.0223,-3.0212,-3.0259,-3.0261,-3.0249,-3.0386,-3.0409,-3.0495,-3.0338,-3.0733,-3.0745,-3.0756,-3.0872,-3.0896,-3.0916,0,0,0,0,0,-2.9935,-3.0072,-3.0044,-3.0069,-3.019,-3.0296,-3.0311,-3.0295,-3.0231,-3.0295,-3.0307,-3.026,-3.0472,-3.04,-3.0425,-3.0515,-3.0728,-3.0742,-3.0755,-3.0862,-3.0891,-3.0916,0,0,0,0,0,0,-3.0042,-3.0077,-3.0047,-3.0201,-3.0246,-3.0281,-3.0363,-3.0326,-3.0391,-3.0378,-3.0354,-3.0365,-3.0501,-3.0521,-3.044,-3.0679,-3.0589,-3.0608,-3.0662,-3.069,-3.0712,-3.0704,-3.0345,0,0,0,0,0,-3.0083,-3.0167,-3.0193,-3.0327,-3.0351,-3.0353,-3.0399,-3.0381,-3.0427,-3.0446,-3.0467,-3.0513,-3.0589,-3.064,-3.0712,-3.0873,-3.0881,-3.0948,-3.097,-3.0988,-3.1005,-3.1089,-3.1119,-3.0806,-3.0806,-3.0806,0,0,-3.017,-3.0199,-3.0254,-3.0349,-3.0382,-3.0468,-3.037,-3.0466,-3.0529,-3.046,-3.0584,-3.0601,-3.065,-3.0795,-3.0861,-3.0816,-3.1092,-3.1005,-3.1019,-3.1027,-3.1106,-3.1136,-3.1162,-3.0815,-3.0813,-3.0812,0,0,-3.0372,-3.0403,-3.0517,-3.0552,-3.0602,-3.0602,-3.0629,-3.0669,-3.0678,-3.0801,-3.075,-3.0824,-3.0957,-3.0994,-3.103,-3.1242,-3.12,-3.1266,-3.1382,-3.1464,-3.1489,-3.1511,-3.1586,-3.1613,-3.1282,-3.1283,-3.1283,0,-3.0474,-3.0602,-3.058,-3.068,-3.0722,-3.0662,-3.0777,-3.0811,-3.0883,-3.0913,-3.0861,-3.1025,-3.1054,-3.1206,-3.1257,-3.1289,-3.1318,-3.1261,-3.1487,-3.1509,-3.1529,-3.16,-3.1628,-3.129,-3.1289,-3.1289,-3.1288,0,-3.0724,-3.0814,-3.0899,-3.0969,-3.1021,-3.1128,-3.1121,-3.1175,-3.1153,-3.1158,-3.1282,-3.1314,-3.139,-3.1425,-3.1404,-3.1574,-3.1544,-3.1491,-3.14,-3.1567,-3.1633,-3.166,-3.1301,-3.1298,-3.1296,-3.1294,0,0,-3.0999,-3.1053,-3.1085,-3.1115,-3.1165,-3.1234,-3.1336,-3.141,-3.1457,-3.1507,-3.1591,-3.1703,-3.1653,-3.1694,-3.1676,-3.1749,-3.1913,-3.1686,-3.1687,-3.1727,-3.21,-3.214,-3.2172,-3.1885,-3.189,-3.1894,-3.2095,0,-3.1203,-3.1382,-3.1364,-3.1533,-3.1615,-3.1558,-3.1646,-3.1686,-3.1692,-3.1761,-3.1767,-3.1847,-3.1776,-3.1799,-3.1868,-3.1879,-3.1988,-3.1864,-3.1962,-3.1966,-3.1953,-3.2207,-3.2251,-3.244,-3.2121,-3.2126,-3.2129,0,-3.1466,-3.1524,-3.1702,-3.1737,-3.1771,-3.1851,-3.1916,-3.1983,-3.2025,-3.2024,-3.2069,-3.2037,-3.2138,-3.2044,-3.2182,-3.2098,-3.2136,-3.2147,-3.2154,-3.2163,-3.2058,-3.2223,-3.25,-3.2528,-3.217,-3.2166,-3.2163,0,-3.1648,-3.1771,-3.1893,-3.192,-3.1965,-3.2022,-3.2043,-3.208,-3.2124,-3.218,-3.2209,-3.2276,-3.2313,-3.2365,-3.2352,-3.2285,-3.2492,-3.2398,-3.2494,-3.2494,-3.2541,-3.2539,-3.2828,-3.2566,-3.2566,-3.2565,-3.2565,0,-3.1878,-3.1989,-3.1975,-3.2051,-3.2172,-3.2149,-3.2269,-3.2283,-3.2315,-3.2391,-3.2345,-3.2416,-3.2394,-3.2464,-3.2454,-3.2569,-3.2586,-3.2588,-3.2584,-3.2592,-3.2592,-3.2618,-3.2605,-3.2573,-3.2571,-3.2569,-3.2568,0,-3.2103,-3.2099,-3.2227,-3.2257,-3.2267,-3.2356,-3.2381,-3.2451,-3.2452,-3.2548,-3.2569,-3.2571,-3.2651,-3.2642,-3.2732,-3.2725,-3.2867,-3.2847,-3.2853,-3.2849,-3.2945,-3.2936,-3.3262,-3.3303,-3.3014,-3.3017,-3.3019,0,-3.2251,-3.2334,-3.2373,-3.242,-3.2445,-3.2522,-3.2566,-3.2545,-3.2594,-3.2646,-3.271,-3.2785,-3.2844,-3.2974,-3.2983,-3.305,-3.3031,-3.3141,-3.3041,-3.3046,-3.3032,-3.3028,-3.3035,-3.3161,-3.3164,-3.3167,-3.3169,0,-3.2513,-3.2505,-3.2572,-3.2638,-3.2693,-3.2743,-3.2789,-3.283,-3.2813,-3.2869,-3.295,-3.2996,-3.3086,-3.3161,-3.3224,-3.3243,-3.3204,-3.32,-3.3225,-3.3235,-3.3235,-3.3236,-3.2907,-3.3193,-3.319,-3.3189,-3.3187,-3.3186,-3.2703,-3.2774,-3.2812,-3.2887,-3.2919,-3.2962,-3.3028,-3.3037,-3.3104,-3.3176,-3.3159,-3.325,-3.3286,-3.3367,-3.3393,-3.3462,-3.3422,-3.346,-3.347,-3.3479,-3.349,-3.3223,-3.3474,-3.3473,-3.3472,-3.3472,-3.3471,0,-3.2962,-3.2983,-3.3052,-3.3117,-3.3176,-3.3132,-3.3179,-3.3231,-3.3312,-3.3349,-3.3408,-3.3499,-3.3571,-3.3584,-3.3652,-3.3705,-3.3688,-3.3723,-3.3719,-3.3724,-3.3522,-3.3493,-3.3735,-3.3735,-3.3735,-3.3735,-3.3735,-3.3735,-3.3104,-3.3222,-3.3218,-3.335,-3.3369,-3.3458,-3.3488,-3.3527,-3.3557,-3.3661,-3.372,-3.3728,-3.3755,-3.3824,-3.3887,-3.3889,-3.3916,-3.3958,-3.3953,-3.3765,-3.3738,-3.3713,-3.3686,-3.3964,-3.3965,-3.4149,-3.415,-3.4152]},{"header":{"parameterUnit":"m.s-1","parameterCategory":1,"la1":30.2991,"la2":30.254,"lo1":-89.0895,"lo2":-89.0444,"dy":0.0017,"dx":0.0017,"nx":28,"ny":28,"refTime":"2024-03-17T09:00:00:Z","depth":0,"parameterNumber":3,"parameterNumberName":"V-component_of_WINDS"},"data":[0,0,0,0,0,0,0,0,0,0,0,0,0,0,0,0,0,0,0,0,0,0,0,0,0,0,0,0,0,0,0,0,0,0,0,0,0,0,0,0,0,0,0,0,0,0,0,0,0,0,0,0,0,0,0,0,0,0,-5.3776,-5.3777,0,-5.3903,-5.3905,-5.3906,-5.3832,-5.3828,-5.3825,-5.3821,-5.395,-5.3957,-5.3964,0,0,0,0,0,0,0,0,0,0,0,0,0,-5.3464,-5.347,-5.3775,-5.3777,-5.3779,-5.3903,-5.3905,-5.3906,-5.3833,-5.3828,-5.3824,-5.382,-5.3948,-5.3956,-5.3964,0,0,0,0,0,0,0,0,0,0,0,0,0,-5.3596,-5.3472,-5.3775,-5.3757,-5.3756,-5.3903,-5.3905,-5.3907,-5.3834,-5.3828,-5.3823,-5.3818,-5.3946,-5.3955,-5.3965,-5.4136,0,0,-5.3997,-5.4001,0,0,0,0,0,0,0,0,-5.3589,-5.3607,-5.3758,-5.3758,-5.3758,-5.3846,-5.3842,-5.3984,-5.3835,-5.3804,-5.3821,-5.3815,-5.392,-5.3932,-5.3968,-5.4142,-5.4148,-5.3997,-5.4004,-5.4008,-5.4011,0,0,0,0,0,0,0,-5.3579,-5.3602,-5.3826,-5.376,-5.376,-5.3741,-5.3754,-5.3869,-5.3891,-5.3806,-5.3801,-5.3818,-5.3919,-5.3958,-5.397,-5.415,-5.3997,-5.4006,-5.4013,-5.4016,-5.4467,-5.4473,0,0,0,0,0,0,-5.3572,-5.3594,-5.3822,-5.383,-5.3658,-5.3751,-5.3765,-5.3823,-5.3889,-5.3894,-5.3822,-5.3814,-5.3943,-5.3958,-5.3974,-5.4177,-5.4008,-5.4017,-5.4023,-5.4462,-5.4469,-5.4475,0,0,0,0,0,0,-5.3566,-5.3593,-5.3817,-5.3711,-5.3738,-5.3762,-5.3828,-5.3829,-5.3868,-5.3901,-5.3904,-5.3858,-5.394,-5.396,-5.4096,-5.418,-5.4022,-5.4031,-5.4455,-5.4464,-5.4472,-5.4584,0,0,0,0,0,0,-5.3557,-5.3591,-5.3658,-5.3713,-5.3744,-5.3938,-5.3833,-5.3835,-5.3886,-5.3876,-5.3936,-5.3941,-5.3937,-5.4081,-5.4106,-5.4191,-5.4039,-5.4447,-5.4459,-5.4469,-5.4573,-5.4596,-5.4615,0,0,0,0,0,-5.3546,-5.3684,-5.3661,-5.3689,-5.3827,-5.3943,-5.396,-5.3954,-5.3893,-5.3959,-5.398,-5.3939,-5.4167,-5.4096,-5.4123,-5.4213,-5.4442,-5.4456,-5.4468,-5.4564,-5.4591,-5.4615,0,0,0,0,0,0,-5.3639,-5.3691,-5.3666,-5.3827,-5.3881,-5.393,-5.4013,-5.3984,-5.4056,-5.4044,-5.4032,-5.4046,-5.4187,-5.4213,-5.4133,-5.438,-5.4295,-5.4314,-5.4358,-5.4384,-5.4405,-5.4395,-5.4048,0,0,0,0,0,-5.3678,-5.3768,-5.3809,-5.3947,-5.3975,-5.399,-5.404,-5.403,-5.4085,-5.4107,-5.4138,-5.4193,-5.4276,-5.4332,-5.4411,-5.4576,-5.4587,-5.4651,-5.4672,-5.4689,-5.4706,-5.4792,-5.4821,-5.4518,-5.4518,-5.4518,0,0,-5.376,-5.3799,-5.3857,-5.3966,-5.4007,-5.4099,-5.4009,-5.4112,-5.4179,-5.4123,-5.4253,-5.4277,-5.4337,-5.4487,-5.4555,-5.4514,-5.4791,-5.4706,-5.4719,-5.4727,-5.4809,-5.4837,-5.4863,-5.4527,-5.4526,-5.4524,0,0,-5.3955,-5.3996,-5.4113,-5.4155,-5.4218,-5.4226,-5.4255,-5.4308,-5.4322,-5.4452,-5.4411,-5.449,-5.4635,-5.4679,-5.472,-5.4929,-5.4893,-5.4955,-5.5065,-5.5149,-5.5173,-5.5194,-5.5267,-5.5293,-5.4971,-5.4972,-5.4972,0,-5.4049,-5.4187,-5.4178,-5.4282,-5.433,-5.4283,-5.44,-5.4442,-5.4527,-5.456,-5.4512,-5.4691,-5.4728,-5.4887,-5.4938,-5.4973,-5.5003,-5.4948,-5.517,-5.5191,-5.5211,-5.528,-5.5307,-5.4979,-5.4978,-5.4977,-5.4976,0,-5.4298,-5.4394,-5.4482,-5.4565,-5.4622,-5.4733,-5.4739,-5.4798,-5.4782,-5.4795,-5.4926,-5.4969,-5.5054,-5.5091,-5.5078,-5.5248,-5.522,-5.5172,-5.5086,-5.5247,-5.5311,-5.5338,-5.4989,-5.4986,-5.4984,-5.4982,0,0,-5.4558,-5.4631,-5.4664,-5.4699,-5.4763,-5.4837,-5.4944,-5.5028,-5.5078,-5.5137,-5.5226,-5.5348,-5.5303,-5.535,-5.534,-5.5415,-5.5574,-5.5357,-5.5358,-5.5394,-5.5762,-5.5797,-5.5828,-5.5551,-5.5556,-5.556,-5.5756,0,-5.4756,-5.4944,-5.4937,-5.5113,-5.52,-5.5155,-5.5248,-5.5296,-5.531,-5.5385,-5.54,-5.5487,-5.5422,-5.5449,-5.5521,-5.554,-5.5648,-5.5526,-5.5631,-5.5635,-5.5617,-5.5862,-5.59,-5.6084,-5.5782,-5.5786,-5.5789,0,-5.5013,-5.5081,-5.5265,-5.5313,-5.5349,-5.5434,-5.5508,-5.5581,-5.5633,-5.5638,-5.5689,-5.5667,-5.5773,-5.5685,-5.583,-5.5747,-5.5789,-5.5805,-5.5812,-5.5821,-5.5722,-5.5876,-5.6142,-5.6169,-5.5829,-5.5826,-5.5823,0,-5.5182,-5.5318,-5.5445,-5.5478,-5.5538,-5.5597,-5.5625,-5.5673,-5.5722,-5.5787,-5.5818,-5.5895,-5.5937,-5.5995,-5.5993,-5.5929,-5.614,-5.6051,-5.6145,-5.6145,-5.6191,-5.6188,-5.6466,-5.6221,-5.622,-5.622,-5.6219,0,-5.5404,-5.5518,-5.5521,-5.56,-5.5725,-5.5714,-5.5838,-5.586,-5.5902,-5.5982,-5.5947,-5.6023,-5.6016,-5.6091,-5.609,-5.6209,-5.6229,-5.6234,-5.6232,-5.6237,-5.6236,-5.6264,-5.6251,-5.6227,-5.6226,-5.6224,-5.6223,0,-5.5613,-5.5621,-5.5756,-5.5801,-5.5815,-5.5905,-5.5943,-5.6016,-5.6026,-5.6127,-5.6151,-5.6167,-5.6254,-5.6257,-5.6358,-5.6356,-5.6501,-5.6486,-5.6484,-5.648,-5.6573,-5.6564,-5.6879,-5.6918,-5.6648,-5.6651,-5.6653,0,-5.5754,-5.584,-5.5894,-5.5945,-5.5976,-5.606,-5.6109,-5.6102,-5.6155,-5.622,-5.6285,-5.6368,-5.6435,-5.6576,-5.6596,-5.6671,-5.6657,-5.6761,-5.6668,-5.6669,-5.6656,-5.6651,-5.6658,-5.678,-5.6783,-5.6785,-5.6787,0,-5.6002,-5.6001,-5.6075,-5.615,-5.621,-5.6269,-5.6323,-5.6367,-5.6365,-5.6426,-5.6515,-5.6566,-5.6668,-5.675,-5.6823,-5.685,-5.6818,-5.6816,-5.6842,-5.6847,-5.6841,-5.6844,-5.6532,-5.6809,-5.6807,-5.6805,-5.6804,-5.6803,-5.6181,-5.6254,-5.6303,-5.6386,-5.6425,-5.6476,-5.6546,-5.6565,-5.6638,-5.6721,-5.6711,-5.6809,-5.6856,-5.6951,-5.6984,-5.7059,-5.7023,-5.706,-5.7069,-5.7078,-5.7087,-5.683,-5.7072,-5.7072,-5.7071,-5.7071,-5.707,0,-5.6426,-5.6454,-5.653,-5.6607,-5.6671,-5.6635,-5.6693,-5.6749,-5.6835,-5.6883,-5.6948,-5.7048,-5.7128,-5.7153,-5.723,-5.7285,-5.7272,-5.7305,-5.73,-5.7307,-5.7117,-5.7086,-5.7314,-5.7314,-5.7314,-5.7314,-5.7314,-5.7314,-5.6561,-5.6682,-5.6687,-5.6827,-5.6854,-5.695,-5.6985,-5.7031,-5.7068,-5.7182,-5.7248,-5.7264,-5.7301,-5.738,-5.745,-5.7455,-5.7485,-5.7524,-5.7523,-5.7345,-5.732,-5.7297,-5.7268,-5.7531,-5.7531,-5.7706,-5.7708,-5.7709]}]]